Weather History for Toledo, OH

Change the Weather History Date:

Thursday, January 17, 2013

  Actual Average Record
Temperature  
Mean Temperature 30 °F 25 °F  
Max Temperature 40 °F 32 °F 64 °F (1952)
Min Temperature 19 °F 18 °F -17 °F (1982)
Degree Days  
Heating Degree Days 35 40  
Month to date heating degree days 596 671  
Since 1 July heating degree days 2847 2996  
Cooling Degree Days 0 0  
Month to date cooling degree days 0 0  
Year to date cooling degree days 0 0  
Moisture  
Dew Point 21 °F    
Average Humidity 65    
Maximum Humidity 85    
Minimum Humidity 44    
Precipitation  
Precipitation 0.00 in 0.06 in 0.80 in (1969)
Month to date precipitation 2.77 1.20  
Year to date precipitation 2.77 1.20  
Snow  
Snow 0.00 in 0.40 in - ()
Month to date snowfall T 6.1  
Since 1 July snowfall 7.0 15.6  
Snow Depth 0.00 in    
Sea Level Pressure  
Sea Level Pressure 30.18 in    
Wind  
Wind Speed 10 mph (WNW)    
Max Wind Speed 22 mph    
Max Gust Speed 29 mph    
Visibility 9 miles    
Events      
T = Trace of Precipitation, MM = Missing Value Source: NWS Daily Summary

Daily Weather History Graph

Daily Weather History Graph

Search for Another Location

Airport:

Trip Planner

Search our weather history database for the weather conditions in past years. The results will help you decide how hot, cold, wet, or windy it might be!

Date:

Astronomy

Jan. 17, 2013 Rise Set
Actual Time 7:58 AM EST 5:32 PM EST
Civil Twilight 7:28 AM EST 6:03 PM EST
Nautical Twilight 6:53 AM EST 6:37 PM EST
Astronomical Twilight 6:20 AM EST 7:10 PM EST
Moon 10:59 AM EST (1/17) No Moon Set
Length of Visible Light 10h 35m
Length of Day
9h 34m
Waxing Crescent, 37% of the Moon is Illuminated
Jan 17
Waxing Crescent
Jan 18
First Quarter
Jan 26
Full
Feb 3
Last Quarter
Feb 10
New

Hourly Weather History & Observations

Time (EST) Temp. Windchill Dew Point Humidity Pressure Visibility Wind Dir Wind Speed Gust Speed Precip Events Conditions
12:52 AM 33.1 °F 23.9 °F 26.1 °F 75% 30.03 in 10.0 mi WSW 12.7 mph - N/A   Overcast
1:52 AM 33.1 °F 26.1 °F 26.1 °F 75% 30.05 in 10.0 mi WSW 8.1 mph - N/A   Overcast
2:52 AM 33.1 °F 26.1 °F 26.1 °F 75% 30.07 in 10.0 mi WSW 8.1 mph - N/A   Overcast
3:52 AM 33.1 °F 26.9 °F 26.1 °F 75% 30.09 in 10.0 mi West 6.9 mph - N/A   Overcast
4:52 AM 33.1 °F 26.9 °F 27.0 °F 78% 30.09 in 10.0 mi West 6.9 mph - N/A   Overcast
5:52 AM 32.0 °F 25.6 °F 27.0 °F 82% 30.11 in 9.0 mi West 6.9 mph - N/A   Overcast
6:52 AM 30.9 °F 25.2 °F 26.1 °F 82% 30.14 in 7.0 mi West 5.8 mph - N/A   Clear
7:52 AM 28.0 °F 21.7 °F 25.0 °F 88% 30.15 in 7.0 mi West 5.8 mph - N/A   Clear
8:52 AM 30.0 °F 25.2 °F 26.1 °F 85% 30.17 in 5.0 mi WSW 4.6 mph - N/A   Clear
9:52 AM 30.0 °F 26.5 °F 27.0 °F 88% 30.21 in 5.0 mi SSW 3.5 mph - N/A   Clear
10:52 AM 35.1 °F 27.9 °F 25.0 °F 67% 30.22 in 10.0 mi WNW 9.2 mph - N/A   Clear
11:17 AM 33.8 °F 26.4 °F 24.8 °F 70% 30.20 in 10.0 mi NW 9.2 mph - N/A   Mostly Cloudy
11:52 AM 35.1 °F 29.3 °F 24.1 °F 64% 30.21 in 10.0 mi NW 6.9 mph - N/A   Mostly Cloudy
12:04 PM 35.6 °F 28.6 °F 21.2 °F 56% 30.18 in 10.0 mi North 9.2 mph - N/A   Scattered Clouds
12:52 PM 37.0 °F 31.0 °F 21.9 °F 54% 30.17 in 10.0 mi WNW 8.1 mph - N/A   Clear
1:52 PM 37.9 °F 30.0 °F 21.0 °F 51% 30.16 in 10.0 mi NW 12.7 mph - N/A   Clear
2:52 PM 39.0 °F 30.6 °F 21.0 °F 49% 30.13 in 10.0 mi NW 15.0 mph - N/A   Clear
3:52 PM 39.0 °F 29.9 °F 19.0 °F 45% 30.14 in 10.0 mi WNW 17.3 mph 23.0 mph N/A   Partly Cloudy
4:52 PM 35.1 °F 25.2 °F 16.0 °F 46% 30.17 in 10.0 mi WNW 16.1 mph 27.6 mph N/A   Clear
5:52 PM 30.9 °F 20.2 °F 17.1 °F 57% 30.21 in 10.0 mi NW 15.0 mph 24.2 mph N/A   Clear
6:52 PM 27.0 °F 14.3 °F 14.0 °F 58% 30.26 in 10.0 mi NW 17.3 mph 26.5 mph N/A   Clear
7:52 PM 24.1 °F 11.0 °F 12.0 °F 60% 30.31 in 10.0 mi NW 16.1 mph 27.6 mph N/A   Clear
8:52 PM 23.0 °F 12.4 °F 8.1 °F 53% 30.33 in 10.0 mi NW 10.4 mph 21.9 mph N/A   Clear
9:52 PM 21.0 °F 9.9 °F 7.0 °F 55% 30.34 in 10.0 mi NNW 10.4 mph - N/A   Clear
10:52 PM 19.9 °F 10.1 °F 7.0 °F 57% 30.35 in 10.0 mi NW 8.1 mph - N/A   Clear
11:52 PM 19.0 °F 12.3 °F 8.1 °F 62% 30.36 in 10.0 mi West 4.6 mph - N/A   Scattered Clouds